Home   Weather   Waterbury   Past weeks
Flag for USA

Past Weather in Waterbury, Connecticut, USA — Yesterday and Last 2 Weeks

Now
61 °F

Fog.


Feels Like: 61 °F
Forecast: 68 / 56 °F
Wind: 7 mph from Southwest

Location: Oxford

Current Time: Apr 19, 2019 at 10:31:04 am

Latest Report: Apr 19, 2019 at 9:51 am


Visibility: 6 mi

Pressure: 29.88 "Hg

Humidity: 90%

Dew Point: 58 °F

Location of WaterburyLocation

Past Weather in Waterbury — Graph

°F

Waterbury Temperature Yesterday

Maximum temperature yesterday: 55 °F (at 10:51 pm)
Minimum temperature yesterday: 43 °F (at 12:51 am)
Average temperature yesterday: 48 °F

High & Low Weather Summary for the Past Weeks

 TemperatureHumidityPressure
High73 °F (Apr 13, 3:51 pm)100% (Apr 6, 12:37 am)30.56 "Hg (Apr 6, 12:37 am)
Low30 °F (Apr 5, 4:51 am)18% (Apr 4, 5:51 pm)29.32 "Hg (Apr 15, 5:16 am)
Average48 °F73%30.03 "Hg
* Reported Apr 4 8:51 am — Apr 19 8:51 am, Waterbury. Weather by CustomWeather, © 2019

Note: Actual official high and low records may vary slightly from our data, if they occured in-between our weather recording intervals... More about our weather records

Advertising

Waterbury Weather History for the Previous 24 Hours

Scroll right to see more
 ConditionsComfort  
Time TempWeatherWind HumidityBarometerVisibility
8:51 am
Fri, Apr 19
59 °FFog.8 mph93%29.86 "Hg6 mi
7:51 am59 °FMostly cloudy.12 mph90%29.87 "Hg8 mi
6:51 am57 °FFog.12 mph96%29.88 "Hg5 mi
5:51 am55 °FPassing clouds.10 mph96%29.87 "Hg10 mi
4:51 am55 °FLow clouds.7 mph96%29.88 "Hg10 mi
3:51 am56 °FPassing clouds.10 mph93%29.89 "Hg10 mi
3:16 am55 °FPassing clouds.7 mph94%29.85 "Hg10 mi
2:51 am56 °FPassing clouds.9 mph93%29.89 "Hg10 mi
1:51 am56 °FPassing clouds.10 mph93%29.90 "Hg10 mi
12:51 am56 °FPassing clouds.8 mph93%29.92 "Hg10 mi
12:23 am55 °FPassing clouds.10 mph94%29.88 "Hg10 mi
11:51 pm
Thu, Apr 18
55 °FClear.9 mph93%29.93 "Hg10 mi
10:51 pm55 °FClear.8 mph90%29.95 "Hg10 mi
9:51 pm53 °FClear.10 mph93%29.95 "Hg10 mi
8:51 pm53 °FFog.7 mph96%29.96 "Hg6 mi
7:51 pm53 °FLight rain. Fog.9 mph100%29.97 "Hg1 mi
6:51 pm51 °FLight rain. Fog.7 mph100%29.98 "Hg0 mi
6:35 pm52 °FFog.6 mph100%29.95 "Hg1 mi
5:53 pm50 °FFog.14 mph100%29.96 "Hg1 mi
5:19 pm50 °FFog.15 mph94%29.98 "Hg1 mi
4:51 pm49 °FFog.15 mph97%30.03 "Hg3 mi
3:51 pm47 °FFog.14 mph97%30.08 "Hg5 mi
2:51 pm47 °FLight rain. Fog.9 mph93%30.11 "Hg5 mi
2:07 pm46 °FLight rain. Fog.12 mph93%30.09 "Hg5 mi
1:51 pm46 °FLight rain. Fog.13 mph93%30.14 "Hg5 mi
12:51 pm46 °FLight rain. Fog.10 mph89%30.18 "Hg5 mi
11:51 am46 °FLight rain. Fog.17 mph86%30.19 "Hg5 mi
10:51 am47 °FOvercast.12 mph74%30.20 "Hg7 mi
Weather by CustomWeather, © 2019

See weather overview